This is the latest recevied weather packets stored in our database for station/object W4ZHA. If no packets are shown the sender has not sent any weather packets the latest 10 day(s).
| Time | Temp. | Humidity | Pressure | Rain* | Wind** | Luminosity | Snow |
|---|---|---|---|---|---|---|---|
| 1778086153 | 21.11° C | 72% | 1013.4 hPa | 0 mm | - | 126 W/m² | - |
| 1778085850 | 20.56° C | 73% | 1013 hPa | 0 mm | - | 289 W/m² | - |
| 1778085548 | 20.56° C | 75% | 1013 hPa | 0 mm | - | 172 W/m² | - |
| 1778085242 | 20.56° C | 76% | 1013 hPa | 0 mm | - | 194 W/m² | - |
| 1778084937 | 20.56° C | 77% | 1012.7 hPa | 0 mm | - | 168 W/m² | - |
| 1778084635 | 20.56° C | 85% | 1013 hPa | 0 mm | - | 273 W/m² | - |
| 1778084333 | 20° C | 87% | 1012.7 hPa | 0 mm | - | 492 W/m² | - |
| 1778084030 | 20.56° C | 94% | 1013 hPa | 0 mm | - | 356 W/m² | - |
| 1778083727 | 20.56° C | 89% | 1012.7 hPa | 0 mm | - | 208 W/m² | - |
| 1778083424 | 20.56° C | 96% | 1012.7 hPa | 0 mm | - | 227 W/m² | - |
| 1778083123 | 20.56° C | 99% | 1013 hPa | 0 mm | - | 354 W/m² | - |
| 1778082819 | 20.56° C | 99% | 1013 hPa | 0 mm | - | 448 W/m² | - |
| 1778081697 | 20° C | 98% | 1013 hPa | 0 mm | - | 182 W/m² | - |
| 1778081394 | 20° C | 98% | 1013.4 hPa | 0 mm | - | 165 W/m² | - |
| 1778081091 | 19.44° C | 99% | 1013.8 hPa | 0 mm | - | 202 W/m² | - |
| 1778080789 | 19.44° C | 99% | 1013.8 hPa | 0 mm | - | 116 W/m² | - |
| 1778080486 | 19.44° C | 99% | 1014.1 hPa | 0 mm | - | 134 W/m² | - |
| 1778080184 | 19.44° C | 99% | 1013.8 hPa | 0 mm | - | 163 W/m² | - |
| 1778079879 | 18.89° C | 99% | 1013.8 hPa | 0 mm | - | 158 W/m² | - |
| 1778079577 | 19.44° C | 99% | 1013.8 hPa | 0 mm | - | 135 W/m² | - |
| 1778079273 | 18.89° C | 99% | 1012.3 hPa | 1.78 mm | - | 86 W/m² | - |
| 1778078971 | 18.89° C | 99% | 1013.4 hPa | 1.78 mm | - | 49 W/m² | - |
| 1778078667 | 18.89° C | 99% | 1013.8 hPa | 3.56 mm | - | 41 W/m² | - |
| 1778078366 | 18.89° C | 99% | 1014.1 hPa | 3.56 mm | - | 24 W/m² | - |
| 1778078062 | 18.89° C | 99% | 1014.8 hPa | 5.33 mm | - | 25 W/m² | - |
* Rain latest hour (hover to see other rain measurements)
** Current wind speed in m/s (hover to see current wind gust speed)